Location: Caltech
(34.1382°N, 118.1253°W)
Time: 21:30:48
(UTC-07:00)

Meteor 2-4 Rocket - Visible Passes

Search period start: 01 August 2014 00:00
Search period end: 11 August 2014 00:00
Orbit: 800 x 909 km, 81.2° (Epoch: 31 July)

Date Brightness Start Highest point End Pass type
(mag) Time Alt. Az. Time Alt. Az. Time Alt. Az.
01 Aug 5.8 00:10:21 10° NW 00:13:40 21° WNW 00:13:40 21° WNW visible
01 Aug 4.4 22:15:37 10° N 22:20:54 41° ENE 22:20:54 41° ENE visible
01 Aug 5.7 23:59:19 10° NW 00:03:00 22° WNW 00:03:00 22° WNW visible
02 Aug 4.5 22:04:47 10° N 22:10:15 38° ENE 22:10:16 38° ENE visible
02 Aug 5.6 23:48:19 10° NW 23:52:21 24° W 23:52:21 24° W visible
03 Aug 4.5 21:53:57 10° N 21:59:21 36° ENE 21:59:38 36° E visible
03 Aug 5.4 23:37:19 10° NW 23:41:44 26° W 23:41:44 26° W visible
04 Aug 4.6 21:43:08 10° NNE 21:48:27 34° ENE 21:49:01 33° E visible
04 Aug 5.3 23:26:20 10° NNW 23:31:07 28° W 23:31:07 28° W visible
05 Aug 4.6 21:32:19 10° NNE 21:37:33 32° ENE 21:38:26 30° E visible
05 Aug 5.2 23:15:21 10° NNW 23:20:24 30° W 23:20:32 30° W visible
06 Aug 4.7 21:21:30 10° NNE 21:26:38 30° ENE 21:27:53 28° E visible
06 Aug 5.1 23:04:23 10° NNW 23:09:32 32° W 23:09:59 31° W visible
07 Aug 4.8 21:10:42 10° NNE 21:15:44 28° ENE 21:17:21 25° E visible
07 Aug 5.0 22:53:26 10° NNW 22:58:41 34° W 22:59:27 33° WSW visible
08 Aug 4.9 20:59:55 10° NNE 21:04:49 26° ENE 21:06:50 22° ESE visible
08 Aug 5.0 22:42:28 10° NNW 22:47:49 36° W 22:48:57 33° WSW visible
09 Aug 5.0 20:49:08 10° NNE 20:53:54 25° ENE 20:56:21 19° ESE visible
09 Aug 4.9 22:31:32 10° NNW 22:36:57 38° W 22:38:28 33° WSW visible
10 Aug 5.1 20:38:22 10° NNE 20:42:59 23° ENE 20:45:55 16° ESE visible
10 Aug 4.8 22:20:35 10° NNW 22:26:06 41° W 22:28:02 32° SW visible
